Back to catalog

COSMOS 416

AliveMilitaryLEO
NORAD 5215·PAYLOAD·🇷🇺 Russia

Launched May 7, 1971 from Plesetsk Cosmodrome

Loading…

Next Passes (next 24 hours)

TLE

FreshSource: Space-Track

Epoch: Sep 14, 2026, 10:50 UTC

1 05215U 71041F   26257.45190381  .00000009  00000-0  15270-3 0  9996
2 05215  74.0162 155.0201 0077958 257.3470 276.7858 12.58072766542012

Track COSMOS 416 in real time with AllMySat

Download on the App Store